RH
14 14 13 12 14 14 15 16 16 15 12 18 27 24 29 40 25 11 15 14 19 32 41 62 80 72 60 58 61 69 66 53 50 56 55 48 46 48 44 43 45 41 40 48 53 48 45 46 36 32 42 40 49 82 100 97 88 63 47 52 56 61 68 65 61 54 42 41 48 51 49 43 41 49 57 64 64 55 59 72 72 79 85 76 79 84 63
14 14 13 13 15 14 16 17 14 14 17 20 22 26 41 43 21 15 18 8 20 40 40 49 64 61 52 49 53 56 56 58 51 43 48 46 39 42 44 40 35 41 55 56 47 42 37 33 34 37 40 45 70 103 102 88 82 64 52 58 56 52 58 60 57 55 52 48 45 43 44 43 41 46 54 59 58 58 64 72 78 86 81 71 81 88 62
14 13 13 14 15 15 16 15 13 16 21 20 18 26 37 29 17 28 30 13 25 48 50 55 67 66 50 37 41 44 43 59 62 47 51 59 51 40 38 42 47 52 56 52 54 56 37 27 38 44 39 46 73 101 100 93 93 85 82 86 69 48 49 59 62 64 65 63 59 52 46 46 46 47 54 59 60 65 69 73 81 83 74 68 78 82 61
13 13 15 15 16 16 15 15 15 14 18 22 19 17 23 24 23 30 30 26 39 56 66 70 64 60 53 35 35 42 36 46 64 58 49 58 62 52 46 50 49 42 38 40 53 61 47 38 44 48 47 48 62 90 103 99 97 96 99 97 77 61 59 59 61 64 62 59 53 43 44 55 56 56 60 61 63 68 68 73 81 77 75 77 70 67 68
14 16 17 16 16 15 12 15 15 12 16 20 19 24 34 39 33 26 20 24 39 51 61 71 60 49 49 32 23 39 40 34 48 50 40 53 68 61 53 50 38 30 35 40 46 53 52 46 42 46 56 59 62 82 97 99 97 96 97 91 72 65 67 64 66 65 54 51 49 43 50 59 57 60 65 60 62 66 64 70 71 67 82 90 66 59 75
17 16 17 16 15 13 12 14 13 13 18 19 22 34 41 37 34 37 32 26 34 39 42 61 66 56 61 55 37 44 46 31 36 43 40 53 60 44 33 38 42 44 43 37 39 48 50 46 45 50 58 66 66 68 76 91 96 86 83 85 74 68 72 72 71 67 59 57 54 50 55 57 54 59 59 56 62 66 64 66 61 61 84 88 64 62 77
16 16 16 14 14 12 11 14 11 12 19 18 21 32 38 37 37 45 48 42 47 52 52 64 66 56 68 67 46 45 39 21 36 53 44 41 46 36 19 20 47 68 59 42 41 48 45 40 47 55 56 61 65 57 55 72 85 77 72 80 76 66 74 83 80 72 64 57 55 55 58 58 55 56 55 55 61 64 64 65 60 61 70 67 60 70 75
14 15 14 11 14 11 11 16 14 15 18 14 19 30 34 35 35 41 51 56 64 73 72 68 55 48 61 52 38 55 49 23 37 56 37 19 25 34 25 21 53 81 70 50 41 42 41 33 41 57 58 62 71 61 48 60 79 82 77 78 70 57 68 86 85 76 65 55 56 58 56 57 58 56 56 60 64 67 68 67 64 67 69 63 66 80 77
12 13 12 11 13 10 14 20 17 18 20 15 21 30 28 28 30 32 39 45 56 64 65 67 53 36 42 39 35 53 51 34 38 41 38 36 28 29 32 35 61 81 73 64 58 58 58 46 49 61 56 56 67 57 50 65 79 84 88 87 78 68 75 88 89 82 68 54 53 54 50 58 68 69 65 66 69 69 67 65 62 65 73 78 84 93 86
9 11 10 10 11 9 13 16 12 17 21 15 20 28 27 26 23 29 38 38 49 64 60 59 50 27 31 47 47 49 55 60 49 27 40 68 59 47 49 45 52 60 54 57 62 67 70 63 65 75 66 64 71 64 63 74 77 84 93 91 87 82 76 82 91 85 65 52 52 55 54 60 74 77 67 62 64 63 61 61 55 58 77 93 97 92 76
8 9 8 8 10 9 11 11 10 16 19 16 18 20 23 22 18 45 66 41 39 68 56 33 33 31 40 60 63 61 67 71 56 23 22 54 71 76 71 53 47 49 47 56 68 74 79 76 79 89 83 79 86 86 80 76 78 87 85 78 90 95 79 77 89 84 69 61 55 53 57 61 65 62 54 52 57 60 64 63 53 59 75 82 80 74 63
6 7 7 7 8 8 10 11 12 16 17 16 14 10 16 15 12 54 87 50 33 63 53 32 48 55 53 63 66 62 62 64 69 56 33 39 69 86 76 52 39 42 54 75 88 87 80 71 74 86 85 80 85 89 83 76 81 87 78 68 79 89 83 80 87 87 80 70 64 65 64 57 54 51 45 47 50 51 58 55 49 61 74 73 73 71 65
5 5 5 6 8 8 9 10 11 13 14 12 10 9 14 13 14 54 85 53 31 50 46 45 75 83 71 72 72 68 68 72 86 87 62 49 60 74 77 63 43 48 73 89 88 77 62 56 63 70 69 67 69 72 73 79 86 84 76 66 64 75 84 79 78 85 79 69 78 84 64 47 52 55 47 47 49 52 61 63 58 66 74 73 75 72 66
4 5 5 5 6 6 6 8 8 9 11 9 8 10 11 11 21 53 72 50 38 59 58 45 62 78 72 67 64 61 61 63 66 64 57 61 65 67 82 84 67 71 87 78 64 58 51 60 76 74 66 68 66 55 51 64 81 84 79 72 66 74 84 72 65 78 78 71 79 79 59 52 61 61 51 49 53 55 63 70 68 68 70 69 70 72 69
5 6 6 5 6 6 5 7 6 6 9 9 9 13 14 12 15 29 49 52 46 56 58 42 46 65 70 65 57 45 43 49 49 43 51 71 73 66 79 90 81 78 75 62 65 67 51 55 73 68 60 62 59 48 41 43 60 75 82 80 70 67 73 69 65 75 80 78 81 78 70 69 70 62 48 45 49 48 51 65 73 71 67 64 66 72 70
6 7 8 6 7 8 6 8 8 6 10 11 12 15 15 15 12 8 27 54 49 34 45 62 71 73 69 65 54 39 41 52 47 39 49 61 61 61 75 82 76 73 67 65 83 89 61 50 61 57 49 48 43 44 46 40 44 58 68 71 67 67 80 86 80 79 79 78 84 87 79 72 69 60 46 43 49 46 47 63 73 70 65 62 65 72 68
7 7 8 7 8 9 7 9 10 8 11 12 14 15 11 12 14 5 21 66 75 55 69 96 93 69 54 51 45 41 53 63 49 38 44 48 50 58 68 72 71 69 64 63 81 92 73 60 63 57 52 51 41 40 50 50 49 55 58 64 74 83 91 90 81 78 79 80 87 91 81 69 62 52 45 48 45 42 61 83 78 66 64 63 64 67 63
8 7 8 8 7 8 8 9 10 10 12 11 10 13 11 13 15 8 27 75 84 66 84 107 90 64 57 56 51 46 51 54 46 40 43 49 56 58 59 63 62 54 52 63 80 83 62 51 58 56 48 48 42 39 47 52 53 57 57 65 85 97 94 86 78 76 81 86 90 88 81 71 61 49 46 47 43 53 84 96 77 65 66 62 60 62 60
8 8 9 8 7 8 8 8 9 10 12 13 12 12 13 17 17 8 28 76 86 67 84 108 96 85 90 88 79 71 61 53 52 51 40 34 48 61 62 61 55 48 54 70 80 73 51 44 60 63 55 56 55 45 44 50 54 57 56 63 81 89 84 81 79 76 77 81 83 84 79 67 55 47 43 46 60 81 90 77 62 64 68 60 56 59 62
9 8 8 8 8 8 7 7 9 9 10 12 13 14 15 18 18 9 22 67 91 80 84 100 99 98 102 97 88 78 57 41 51 64 52 38 47 59 51 42 44 47 50 55 58 57 50 49 58 60 57 64 62 47 47 61 62 53 51 60 70 69 67 76 83 78 72 76 83 88 81 60 46 48 51 55 69 80 74 65 65 67 64 60 58 60 66
9 8 9 8 8 8 8 8 8 8 10 10 9 14 19 18 20 16 13 33 61 69 73 85 93 94 95 95 94 87 69 52 53 62 61 56 58 53 36 33 45 49 46 46 45 45 50 60 65 61 57 59 56 48 54 69 67 54 53 65 68 61 61 74 83 77 74 84 91 83 67 52 44 49 55 59 62 64 65 72 75 67 60 61 63 66 69
9 9 9 9 8 9 8 8 9 7 9 11 8 12 20 21 21 20 12 23 57 79 80 82 88 89 91 92 90 87 85 84 82 81 76 69 63 56 52 55 59 60 60 56 47 44 54 62 61 59 56 54 55 58 59 63 67 64 57 58 62 60 58 63 69 70 68 71 69 55 43 44 46 48 54 59 60 64 69 73 74 70 64 63 66 70 68
9 9 9 9 9 10 8 8 10 8 7 10 9 10 17 21 20 16 13 32 71 89 82 82 88 87 89 94 91 84 82 83 89 93 88 76 63 60 67 67 60 66 75 64 48 55 69 68 59 56 57 57 63 68 60 58 72 74 59 54 59 58 52 50 56 63 61 51 44 40 41 45 47 50 58 62 61 65 71 72 72 72 66 61 65 68 62
9 9 10 9 8 10 10 8 9 8 8 10 9 9 13 16 16 15 16 34 63 71 63 68 78 79 81 88 90 87 82 79 84 88 86 81 64 48 53 61 60 66 75 68 61 68 76 72 61 52 52 60 70 69 56 56 71 72 62 68 72 58 46 46 50 59 65 56 45 44 47 48 49 53 58 61 63 67 72 73 73 71 63 59 61 61 54
10 9 10 10 10 10 10 10 10 10 10 10 8 9 13 15 17 18 17 26 49 58 52 53 63 75 87 87 82 81 81 82 89 89 87 91 80 55 52 68 72 66 65 69 74 74 68 65 64 59 53 54 61 63 57 56 64 65 62 72 74 55 45 50 51 54 59 52 42 45 51 51 52 58 62 64 69 73 72 70 70 66 58 56 58 56 51
11 10 9 10 11 10 11 12 11 11 11 11 11 10 12 15 18 17 14 22 41 58 62 59 59 70 81 78 72 76 82 86 94 96 91 92 89 78 76 82 78 67 65 74 83 82 73 68 69 67 59 48 51 67 70 59 55 59 61 64 60 50 48 54 53 54 58 54 49 53 59 57 55 58 63 66 72 76 74 69 66 61 55 57 59 55 54
10 11 11 12 11 11 12 12 12 14 13 12 13 12 13 17 17 15 17 21 27 39 54 59 58 62 67 69 70 75 78 84 92 95 92 90 89 88 86 81 78 79 78 76 78 84 83 71 60 65 69 60 58 73 77 64 57 64 69 64 54 49 53 58 61 66 68 62 57 57 61 63 60 59 65 70 73 74 72 68 64 59 56 59 61 60 60
11 11 13 13 12 12 12 11 13 15 14 13 15 14 14 17 16 16 19 19 19 36 58 63 57 55 53 56 66 69 66 74 83 83 79 78 79 82 79 73 78 86 79 65 63 73 74 60 55 71 82 70 62 69 72 67 65 66 67 62 51 46 50 53 59 65 58 49 52 60 62 62 59 58 65 73 71 69 70 68 62 56 57 62 65 66 66
11 12 12 13 14 13 12 13 14 14 15 16 15 13 13 16 16 16 18 15 16 40 64 64 55 52 49 52 64 67 59 62 70 71 67 65 66 69 68 68 76 83 77 69 69 72 73 72 76 82 73 59 59 66 65 68 73 67 57 54 51 49 49 46 47 50 46 46 57 65 64 63 62 63 70 73 69 66 67 64 58 57 63 67 68 68 69
11 12 11 12 13 12 12 14 13 12 15 15 16 24 30 25 16 15 20 17 13 29 58 65 54 50 55 59 61 60 56 58 62 63 62 62 65 67 68 70 76 76 73 74 71 67 78 96 99 85 68 63 68 66 64 77 85 69 51 50 54 55 53 48 45 45 46 54 63 65 64 66 66 65 69 71 67 66 65 62 60 62 68 70 70 69 68
12 13 11 11 12 10 12 14 12 13 16 12 16 31 37 27 16 16 21 19 12 24 58 71 53 46 58 61 52 50 55 58 60 63 62 61 64 68 67 68 72 71 74 83 81 73 78 89 87 80 79 82 80 73 73 83 85 70 55 51 52 52 52 52 54 55 54 58 65 67 69 71 70 71 74 72 67 67 66 63 64 66 68 70 69 68 67
12 13 13 12 12 11 12 13 13 14 15 13 15 23 25 21 19 19 19 17 14 26 55 66 48 45 60 58 46 52 61 55 52 59 58 53 56 60 59 61 67 70 77 85 82 73 72 77 80 83 83 82 84 87 86 80 74 65 55 47 46 50 51 51 57 63 62 63 69 73 74 73 73 77 79 74 69 70 69 65 65 67 67 67 66 64 64
12 13 13 12 13 13 13 14 15 13 14 16 18 19 19 19 19 17 18 17 14 23 49 60 46 40 47 44 37 46 57 55 54 57 53 48 52 56 56 60 64 60 60 68 70 67 71 80 84 80 74 73 83 92 87 75 64 55 48 46 48 53 55 56 59 63 63 65 69 72 73 73 74 77 78 74 71 72 71 66 65 68 70 70 68 65 65
13 14 13 11 13 13 12 13 14 12 13 16 16 17 19 18 17 18 18 15 15 25 45 57 52 41 41 51 57 52 48 53 59 57 51 50 52 49 52 66 72 58 47 56 69 71 73 76 75 71 71 74 78 79 71 60 52 50 51 53 53 55 59 63 64 62 62 65 69 69 69 72 76 78 79 77 73 72 72 68 68 75 79 75 69 68 68
13 13 12 12 13 13 12 13 12 12 14 17 16 18 18 16 16 20 17 12 21 35 46 59 66 53 36 43 56 52 45 53 59 57 56 54 52 53 59 66 67 58 49 56 69 73 72 70 64 64 72 75 73 71 64 52 47 51 53 52 54 59 62 62 61 62 64 69 75 78 77 80 85 85 84 82 78 75 75 73 73 80 85 79 71 70 71
13 13 14 14 12 11 13 13 12 13 15 16 15 17 17 15 15 18 15 12 19 36 51 67 76 61 35 31 42 46 45 51 58 66 70 62 54 63 69 61 55 59 62 65 70 72 70 66 61 65 76 77 66 60 55 48 48 52 50 47 52 55 53 52 58 65 71 78 86 89 87 88 89 88 87 84 78 75 77 77 77 82 86 81 75 75 75
12 12 14 14 13 14 15 12 13 16 15 15 17 15 14 15 14 13 18 21 18 30 56 71 69 59 47 42 47 52 50 50 54 63 70 69 64 67 72 69 68 70 65 62 69 72 66 62 64 70 76 71 57 51 51 50 49 49 46 46 52 54 52 57 66 73 80 88 91 91 92 93 91 90 89 84 78 78 79 78 79 85 88 84 81 81 79
12 13 14 13 15 22 22 14 14 16 13 13 18 13 11 21 24 22 35 44 33 34 57 64 58 64 67 54 49 52 49 51 57 56 55 64 69 65 64 70 75 71 61 59 67 67 59 62 75 80 75 65 54 50 51 51 48 47 47 49 55 58 58 64 74 81 86 88 84 83 87 85 80 81 83 80 77 80 80 77 80 86 85 81 81 81 80
14 13 12 13 18 26 25 15 13 17 14 13 16 14 17 29 29 23 38 53 45 45 62 62 59 74 77 56 53 62 57 54 64 64 56 59 61 51 49 57 61 57 54 55 57 51 47 62 84 88 78 69 59 49 49 51 49 49 52 53 55 58 61 67 74 76 75 73 73 73 71 64 61 68 77 78 78 80 79 78 84 88 86 82 80 79 80
14 12 14 18 18 18 17 13 12 15 16 15 19 22 26 31 30 29 41 48 37 38 54 58 60 76 74 52 50 65 59 51 60 67 63 64 63 52 47 53 55 49 47 59 71 66 53 58 76 77 66 61 58 52 52 55 51 49 55 58 57 59 63 68 71 70 69 71 74 73 69 66 68 73 77 77 78 78 76 77 83 87 85 80 76 72 76
12 12 13 17 15 12 14 16 13 14 19 21 24 26 27 30 37 44 46 38 30 38 56 58 52 61 67 59 57 63 61 61 74 78 68 66 70 60 47 48 54 47 41 59 86 83 59 55 72 76 63 58 60 59 57 56 52 52 58 62 62 64 68 71 74 75 76 81 86 85 81 80 81 79 75 73 75 75 75 79 86 87 82 76 69 64 69
12 13 12 14 15 13 14 15 14 17 22 21 21 26 31 33 36 37 32 29 33 42 50 51 48 52 59 61 60 59 60 69 84 81 63 59 70 70 59 57 58 46 39 57 78 73 57 60 72 69 54 48 54 60 59 54 53 57 60 64 68 71 74 78 83 83 82 84 89 92 89 85 82 75 66 63 67 69 69 73 78 77 74 70 64 57 61
13 13 11 13 15 15 17 20 21 23 27 28 26 29 32 33 36 36 36 46 57 54 44 45 53 55 56 57 58 58 60 72 85 80 62 57 68 71 62 60 58 45 43 61 72 66 64 70 67 56 49 49 56 62 60 53 53 61 64 66 69 72 74 79 85 88 88 87 88 90 90 85 77 68 58 57 64 68 67 67 69 68 69 68 60 50 54
12 13 15 20 22 19 18 20 20 21 27 32 32 29 27 32 41 43 35 35 45 49 49 53 50 42 45 59 67 68 69 73 75 69 58 57 67 65 55 56 64 57 49 55 63 65 70 71 58 46 47 51 53 57 59 57 59 66 69 71 75 77 79 83 87 91 95 96 92 89 86 80 73 70 67 65 65 65 63 61 61 64 70 69 58 49 52
13 20 26 28 27 24 22 25 29 30 27 29 37 44 42 40 43 47 48 50 51 52 63 75 67 50 52 63 63 66 75 70 57 56 60 56 54 53 48 50 63 66 58 57 64 64 62 59 51 44 44 43 40 45 54 59 62 66 71 78 84 87 87 89 92 94 99 101 96 90 85 80 77 77 73 65 61 63 62 57 52 55 65 67 59 52 53
18 29 32 26 26 28 27 25 28 27 25 35 56 66 60 51 49 57 74 87 80 66 73 88 77 59 60 62 52 61 82 74 50 54 69 57 39 44 51 46 47 52 53 56 64 62 52 48 48 46 44 42 40 43 51 58 63 68 71 74 80 86 88 89 90 93 96 98 97 93 88 82 79 77 71 63 59 61 62 55 46 45 52 57 53 49 51
22 34 32 25 28 32 28 26 31 34 39 56 72 76 72 71 70 71 80 90 87 79 86 94 78 58 61 63 49 55 80 77 49 47 61 51 38 50 61 51 46 52 51 46 53 60 57 52 50 48 48 49 50 51 55 61 68 73 71 68 73 84 89 88 90 93 94 95 97 96 91 86 80 75 68 62 60 60 58 52 43 39 43 48 45 43 50
23 29 25 23 28 31 29 33 41 47 57 72 86 94 95 84 67 61 72 86 88 82 80 76 62 51 58 64 54 50 65 66 49 45 54 51 42 48 54 48 49 57 55 47 49 56 56 53 55 58 59 59 58 58 60 63 68 73 74 72 74 82 86 88 91 91 91 94 99 98 94 89 83 74 65 60 60 59 53 44 37 37 42 46 43 40 45
25 27 27 31 39 45 48 47 44 53 75 92 94 96 96 83 67 69 82 91 93 90 82 73 61 52 52 60 61 56 54 53 45 44 53 54 45 43 47 47 47 52 57 57 54 48 44 49 60 68 72 72 69 65 63 63 67 72 74 72 72 76 81 86 89 89 91 97 101 98 94 91 85 77 69 64 60 54 46 39 37 40 45 46 42 37 37
25 28 33 35 36 43 51 47 37 47 75 87 80 78 85 86 80 80 85 92 97 93 80 72 72 64 55 55 56 52 54 61 58 50 52 58 54 49 50 52 53 59 66 65 56 45 44 54 66 71 74 76 75 70 65 66 71 74 73 70 70 73 78 82 84 87 92 98 99 98 97 93 84 74 66 57 48 44 45 44 40 40 44 48 46 40 36
28 30 37 40 39 44 51 49 41 44 57 66 72 79 84 83 77 72 76 86 88 70 51 58 72 67 54 51 50 42 45 58 60 53 56 64 64 59 58 58 56 54 54 52 49 49 55 65 71 69 66 67 71 72 70 69 70 71 71 71 73 76 78 81 84 88 93 97 100 100 97 88 76 66 57 48 43 49 56 53 42 36 40 44 44 41 37
31 27 36 52 67 73 64 51 47 52 59 72 87 89 77 69 74 76 74 73 66 51 47 63 70 54 41 47 52 47 45 50 53 54 62 67 64 59 57 53 46 43 44 47 53 59 67 75 78 72 63 59 61 65 69 71 70 69 70 73 76 79 81 83 86 89 93 98 101 100 95 87 76 67 61 57 57 61 62 53 39 33 35 36 35 37 39
Wind_Speed
5 5 5 6 6 5 4 3 5 6 6 4 2 1 2 3 3 4 12 4 3 9 6 2 5 4 0 1 1 1 2 2 0 0 1 1 0 2 1 1 1 1 1 0 1 1 2 2 0 0 2 1 0 2 3 3 2 1 1 2 1 1 2 2 5 5 6 5 1 2 1 2 2 2 2 2 2 1 3 6 5 4 5 3 4 9 6
6 6 6 7 6 3 3 3 4 5 5 3 1 2 2 2 4 3 13 5 3 5 4 2 2 1 0 2 2 2 1 2 1 0 1 1 1 1 0 1 1 0 1 2 1 1 0 1 0 1 1 1 1 1 2 3 3 3 1 2 2 2 1 3 5 7 6 5 4 3 3 4 3 3 2 4 6 6 3 3 2 1 4 4 7 10 7
7 8 7 6 4 3 3 3 3 4 5 2 2 3 3 3 1 2 11 13 8 4 4 6 5 2 2 4 2 2 2 1 1 1 1 1 2 1 1 0 1 1 1 1 1 1 1 1 1 2 0 2 1 2 2 3 2 2 1 2 2 2 1 2 3 5 8 8 7 8 8 7 4 4 5 7 8 8 5 3 4 4 6 6 6 9 11
8 7 5 4 3 4 5 4 3 2 3 2 4 5 3 2 2 2 7 11 9 3 1 5 6 4 4 3 1 1 2 1 1 1 1 1 2 1 1 0 1 2 2 2 2 2 2 1 1 2 1 3 1 1 2 2 2 1 2 1 2 2 1 2 4 4 5 8 10 11 10 9 9 10 9 7 6 6 5 4 4 7 10 8 7 12 19
7 5 3 3 4 4 3 2 2 1 1 1 3 6 4 2 2 1 2 4 5 4 4 5 4 4 4 3 0 1 1 1 1 0 1 0 1 1 1 2 2 2 2 2 1 2 2 2 1 0 1 4 3 1 1 2 2 2 2 1 3 3 2 3 4 7 9 10 13 14 11 10 11 10 8 7 6 5 5 3 6 8 9 9 12 18 22
5 4 4 4 4 2 0 1 1 2 1 1 2 4 5 2 2 2 1 2 2 3 3 3 5 5 4 3 1 1 1 0 1 1 1 1 1 0 1 3 2 1 1 1 0 3 4 2 1 0 1 3 4 3 1 1 1 1 2 3 3 4 2 3 2 7 10 10 13 13 9 7 5 4 5 7 7 6 5 5 8 6 7 11 19 23 20
5 5 5 5 4 4 2 2 3 2 1 1 3 4 3 3 3 0 2 3 3 1 2 4 6 5 3 3 1 2 4 2 2 1 1 2 1 1 1 3 2 2 2 2 1 2 2 2 3 1 0 2 3 3 1 1 1 1 3 3 2 3 3 3 1 7 11 11 12 11 8 6 2 3 3 6 6 5 6 7 8 9 11 16 20 20 16
6 6 6 6 5 5 4 2 2 3 3 2 3 4 2 2 3 2 3 4 2 1 2 4 5 4 3 2 1 2 5 3 2 1 2 0 1 0 1 2 0 2 2 3 1 3 4 2 4 3 1 2 1 1 1 2 3 4 3 2 1 1 3 1 1 5 10 9 8 8 8 5 1 2 3 6 7 6 5 6 9 12 16 16 15 14 11
6 5 5 5 4 5 4 3 3 3 2 2 2 4 3 3 4 6 6 4 3 2 2 3 4 2 2 2 2 2 4 4 2 1 2 2 2 1 2 2 2 2 3 2 3 5 6 5 6 6 4 2 3 2 2 2 3 4 2 1 3 3 2 2 4 4 8 5 5 12 13 2 5 1 5 6 7 8 8 9 11 13 15 15 12 9 9
4 4 3 3 3 5 5 4 3 2 3 3 3 4 5 5 4 4 6 4 2 1 2 2 3 2 1 1 2 1 2 2 1 1 1 1 1 2 4 4 3 2 1 1 4 5 5 5 5 4 4 2 2 1 1 3 1 1 1 1 1 2 1 3 3 3 8 6 9 15 12 3 3 2 4 6 8 9 9 11 13 9 6 8 7 7 12
3 2 2 3 3 4 4 4 3 3 5 3 2 7 9 6 4 3 6 5 1 1 2 2 3 2 1 1 2 1 1 0 0 1 1 1 0 1 4 5 3 0 2 2 1 2 3 3 2 3 3 4 3 2 2 2 2 2 3 1 1 3 2 2 0 1 8 11 12 11 6 6 2 4 2 8 10 9 10 14 15 7 4 5 9 12 18
2 2 3 3 3 3 4 3 4 5 5 4 5 11 10 6 5 4 5 5 0 1 2 0 1 2 2 2 3 2 3 2 1 1 1 1 0 2 3 5 3 0 2 3 4 5 4 3 3 4 4 4 4 4 3 1 1 0 2 2 1 2 2 2 1 1 5 7 11 10 7 4 3 6 4 7 7 9 14 18 13 6 7 11 14 17 20
4 4 4 4 4 4 4 3 3 4 5 6 8 10 10 8 6 5 5 6 1 1 3 1 1 1 3 4 4 2 2 2 0 0 0 0 1 0 0 2 3 2 3 5 6 5 3 1 2 1 2 4 4 4 2 1 2 2 2 2 2 1 1 1 1 1 3 4 6 5 7 4 3 3 3 5 6 10 17 18 8 3 6 12 14 17 20
7 7 7 5 5 5 4 4 4 3 5 9 9 8 11 9 4 3 5 6 1 3 2 3 1 1 4 4 4 2 1 2 1 1 0 1 1 2 2 2 3 3 5 6 4 3 1 1 4 3 3 5 5 3 2 1 1 2 2 2 1 3 2 1 2 1 2 5 4 5 7 5 3 2 5 5 6 7 10 12 6 2 5 12 14 18 20
9 8 8 7 6 6 5 4 4 4 5 6 7 8 11 7 2 3 5 6 4 2 1 3 5 5 5 3 3 3 1 2 1 1 1 1 1 1 1 2 3 3 4 4 3 2 1 2 3 4 4 3 2 3 3 2 1 2 2 2 3 3 2 1 2 2 2 3 6 5 6 5 0 3 7 6 8 9 7 7 5 2 8 15 16 18 22
9 8 8 8 7 7 6 5 5 5 5 4 4 8 9 5 3 6 7 7 6 3 2 3 4 5 5 2 2 2 2 1 1 1 3 3 2 1 0 2 2 2 3 4 3 3 4 3 3 2 2 1 2 3 3 2 3 2 2 3 5 5 2 4 2 2 2 2 3 4 6 4 2 4 8 6 9 13 10 6 4 4 12 17 17 19 21
10 9 8 8 7 6 6 6 6 5 4 4 4 6 6 5 6 8 8 6 5 2 2 1 2 3 4 2 1 1 2 2 2 2 0 2 2 2 1 0 1 2 3 4 3 4 5 3 2 2 2 2 2 2 3 2 4 5 5 5 5 5 4 4 3 2 1 1 2 3 5 4 1 6 9 8 9 9 8 9 9 10 15 17 16 19 21
11 10 9 9 7 7 6 5 5 4 3 3 3 4 6 7 6 6 6 6 5 2 1 1 1 1 2 3 3 2 2 2 2 2 1 1 1 1 1 1 1 1 2 3 2 3 4 2 1 2 2 3 1 1 2 1 3 4 3 3 3 3 2 2 1 3 3 3 3 4 5 4 4 8 8 9 10 6 4 7 10 12 16 16 15 19 20
11 11 10 9 8 7 6 5 4 4 3 3 3 3 6 7 6 6 7 6 5 3 2 1 0 1 1 1 2 1 1 2 2 3 2 1 1 1 1 1 1 1 1 3 2 2 3 0 1 3 1 3 2 1 1 1 2 2 2 2 2 2 2 2 1 2 3 3 3 4 5 4 3 7 5 5 9 7 4 6 9 11 14 15 16 18 15
12 11 11 10 9 8 7 7 6 4 2 2 2 3 6 6 4 3 5 6 6 4 1 1 1 1 1 1 2 2 1 1 2 3 3 2 2 2 3 2 1 0 1 2 2 1 2 2 2 1 2 3 2 1 1 3 3 2 1 1 2 2 1 3 3 2 1 2 1 3 4 2 5 10 7 6 6 5 6 8 10 11 12 13 14 14 11
12 12 12 11 11 10 8 8 7 5 4 3 1 4 8 8 4 3 6 12 12 5 1 2 3 4 4 3 3 3 2 2 2 2 3 2 0 2 3 3 2 1 1 1 2 1 2 3 2 1 2 2 0 1 1 2 4 3 2 2 2 2 2 2 3 1 1 2 1 2 4 3 4 7 4 1 0 2 4 7 8 9 10 11 10 10 10
13 13 13 12 12 12 11 10 9 7 6 4 1 4 12 17 17 13 14 19 20 11 7 8 8 9 10 8 6 5 3 2 1 1 3 2 1 0 2 2 2 2 2 2 3 1 1 2 2 2 2 1 0 1 1 1 3 4 0 2 2 4 5 3 3 3 2 4 6 7 7 4 2 3 1 1 1 2 3 5 7 7 8 8 7 9 11
13 13 14 13 14 14 13 12 11 8 7 4 1 7 17 22 20 17 20 24 23 15 10 10 9 8 8 7 6 7 5 3 1 0 2 3 1 0 1 1 2 1 1 1 2 3 3 2 2 2 2 2 2 1 0 1 3 3 1 2 3 4 4 3 1 3 4 6 8 9 7 5 4 3 1 1 3 3 3 4 6 7 7 6 6 8 10
12 14 14 14 15 15 14 15 14 11 9 7 5 11 21 23 20 20 20 17 11 6 5 5 4 3 3 3 4 6 6 4 2 1 1 2 2 0 1 2 2 1 0 1 2 3 4 2 2 2 1 2 3 3 1 3 4 2 2 2 5 2 2 3 2 2 3 4 6 5 3 4 5 2 1 1 4 3 3 4 6 6 6 8 8 9 11
11 12 13 14 15 15 15 15 15 14 13 11 10 15 21 22 17 14 12 9 5 5 4 3 3 2 2 3 3 4 5 4 3 1 0 1 2 1 1 2 2 2 2 3 2 4 4 2 2 2 2 2 2 2 2 3 3 2 2 3 3 1 2 2 4 3 2 6 8 5 4 6 5 1 1 2 4 4 4 5 6 6 7 10 12 12 11
11 11 11 12 13 14 14 14 14 14 13 12 12 13 16 16 11 8 11 13 9 6 5 1 2 2 1 2 4 5 5 6 4 2 2 2 2 3 4 4 4 4 4 4 3 3 4 3 3 2 2 2 2 3 3 2 1 2 3 5 2 3 2 2 3 3 5 8 7 5 5 6 4 1 1 2 3 3 4 5 4 5 6 8 11 12 11
13 12 11 10 11 12 14 14 14 13 11 8 8 8 9 11 11 10 12 11 5 3 3 2 2 1 3 4 5 5 6 7 6 4 3 3 4 3 4 6 5 4 4 4 3 3 4 3 1 2 3 1 1 2 2 1 1 1 4 4 2 3 3 2 0 3 5 5 2 1 4 6 4 2 1 1 1 3 4 4 4 5 6 6 8 10 10
14 12 9 8 8 10 12 15 17 17 15 12 12 12 12 10 7 6 2 4 3 4 4 3 2 2 3 3 5 6 5 6 6 5 5 5 5 3 4 5 4 3 3 3 2 2 3 1 2 2 2 1 0 1 1 1 0 2 5 4 4 5 5 4 2 4 7 6 2 4 2 5 5 3 2 0 1 3 4 4 5 5 7 7 7 8 9
13 13 9 6 3 3 4 6 8 8 9 8 9 12 15 15 11 7 4 5 10 13 7 3 3 3 1 1 4 4 3 4 5 5 6 7 7 6 5 5 4 3 3 3 2 2 2 2 2 1 1 1 1 2 2 0 2 5 6 6 6 5 6 7 7 6 7 5 3 5 4 5 5 4 2 1 1 2 2 3 5 6 7 7 8 9 9
12 13 12 9 5 1 2 4 4 3 1 1 2 5 9 11 12 14 12 9 12 13 7 3 3 1 1 1 3 4 3 3 4 5 5 6 7 7 6 5 4 3 3 3 2 2 1 1 0 1 2 1 2 1 1 1 2 6 6 6 6 5 5 6 7 6 5 3 4 5 4 5 5 5 2 2 4 4 2 2 5 6 7 7 9 10 10
10 11 12 13 12 9 5 2 3 6 5 3 1 2 3 2 3 7 7 5 6 8 7 4 2 1 2 1 2 3 3 2 1 3 3 4 5 5 4 3 2 1 2 2 1 1 2 1 1 0 1 1 3 2 2 2 2 6 6 6 7 6 5 5 6 6 5 3 2 2 4 4 2 2 2 3 4 3 2 3 6 8 9 10 10 10 10
7 8 10 12 14 14 14 13 8 3 2 5 6 5 5 4 3 4 5 4 5 6 7 5 2 1 1 2 2 2 3 2 1 2 2 2 2 3 3 3 1 1 2 3 1 0 1 2 2 1 1 2 3 2 2 3 4 7 6 7 7 5 5 5 5 4 5 4 3 2 4 3 2 2 1 1 2 2 2 5 7 9 11 12 12 11 11
5 5 7 9 11 13 14 15 14 13 14 16 16 13 9 6 4 4 4 5 5 6 5 4 3 1 1 1 1 2 2 0 1 2 1 1 2 2 2 3 2 1 2 1 1 1 0 1 2 1 1 1 3 2 2 6 9 8 5 6 6 5 5 5 4 3 4 5 5 2 4 4 3 2 2 0 1 1 2 6 8 10 11 12 11 11 12
3 3 5 6 7 9 11 12 12 14 16 16 15 16 16 12 7 4 3 3 5 6 6 4 4 1 1 2 1 1 0 1 1 1 0 2 3 1 0 3 3 1 1 1 1 1 0 0 2 2 2 0 2 1 4 8 11 9 5 5 5 3 2 3 4 4 5 6 7 6 6 5 3 2 2 1 1 1 4 7 8 8 8 7 7 10 12
1 2 3 4 4 5 6 8 9 10 12 11 10 11 14 14 13 11 6 2 2 3 2 3 3 3 1 2 2 2 1 1 0 1 1 1 3 2 2 1 2 0 1 1 1 1 1 1 2 2 2 0 1 4 7 9 10 8 6 6 5 4 3 3 4 5 5 6 5 5 5 3 3 3 3 2 1 1 4 6 4 4 4 5 6 10 11
1 1 2 2 3 2 1 3 4 4 5 6 6 6 7 8 10 12 11 10 9 5 2 1 3 2 2 1 2 2 2 1 1 1 1 1 2 2 2 2 0 1 1 2 1 1 1 1 2 1 1 1 4 7 8 8 8 8 8 8 8 7 6 5 5 5 5 4 3 3 3 3 4 4 4 3 3 2 3 4 3 3 4 5 6 9 10
1 1 2 1 1 2 2 3 4 3 4 4 3 4 5 3 3 5 7 10 13 10 5 3 1 1 1 1 1 2 3 2 1 2 2 1 1 1 2 2 1 2 2 2 1 2 1 1 2 2 4 5 6 7 7 7 8 8 7 7 7 7 6 4 5 6 4 2 2 3 4 4 5 5 4 4 3 2 2 3 4 4 4 5 6 8 10
2 1 1 0 1 2 2 2 2 3 3 2 1 2 4 4 3 3 4 5 7 7 6 5 2 0 1 0 1 2 2 1 1 2 1 1 1 1 1 1 1 1 1 3 3 2 1 1 1 2 6 7 7 9 10 9 8 7 6 6 6 7 6 6 7 7 4 3 4 4 5 5 6 6 5 4 4 3 4 6 6 6 6 7 8 9 11
2 1 1 2 2 1 0 1 2 2 1 2 2 1 3 4 4 2 3 3 3 3 4 3 1 1 2 2 2 3 3 2 2 2 0 1 1 2 1 0 0 0 1 2 2 1 1 2 2 2 5 6 6 7 8 8 7 7 6 7 8 9 9 9 10 10 8 6 5 6 6 6 7 5 4 4 3 4 5 7 7 7 7 8 8 9 11
2 2 2 2 2 2 2 2 2 1 1 3 3 2 2 3 3 1 1 3 2 1 2 2 1 1 1 2 2 3 3 3 1 1 1 1 1 0 1 0 0 0 1 3 2 1 1 2 2 2 4 6 6 5 4 6 7 7 6 8 11 13 13 13 14 14 12 8 6 8 9 9 9 7 5 5 5 4 5 7 8 8 9 8 8 9 10
1 2 2 2 3 4 4 3 3 2 2 2 3 2 1 2 1 1 1 3 2 2 1 2 2 2 1 2 1 2 2 2 1 2 2 0 1 1 1 1 1 1 2 5 2 2 2 0 2 3 5 7 6 4 3 5 6 6 7 10 12 14 14 14 14 15 14 10 8 10 11 12 12 11 10 10 9 8 8 8 8 9 10 9 9 9 9
4 5 6 6 6 4 3 3 4 4 2 1 1 2 1 1 2 1 1 1 0 1 1 1 1 1 1 1 1 2 1 2 2 2 2 1 1 1 1 1 2 1 3 3 1 4 2 2 4 6 8 7 5 4 4 6 7 6 8 12 14 15 16 15 13 14 16 15 13 13 14 14 14 14 13 13 13 12 11 10 10 10 10 9 9 9 9
8 7 6 5 4 4 3 3 3 2 2 2 2 2 2 2 2 1 2 2 1 0 1 1 0 0 0 0 1 0 1 2 1 1 1 1 1 2 3 2 1 1 2 1 3 2 1 4 5 7 7 5 4 5 6 7 6 5 8 12 15 16 17 17 15 15 17 17 16 15 16 16 16 14 13 14 13 13 13 12 11 10 10 9 9 9 9
3 3 3 2 2 3 2 1 1 2 1 2 1 1 2 3 2 0 1 2 1 1 1 0 1 0 2 1 1 1 1 1 1 1 1 1 1 2 1 1 3 1 1 1 1 1 3 5 7 8 7 5 5 6 7 7 6 5 6 10 13 16 16 16 15 14 14 15 16 16 16 16 16 14 14 15 15 14 14 13 11 10 10 9 9 9 8
1 2 3 3 3 2 1 1 2 2 1 1 1 3 2 2 2 2 2 1 0 0 1 2 3 1 2 2 1 0 1 1 1 0 0 1 1 0 1 2 1 1 1 1 2 2 4 6 7 7 7 8 8 8 8 8 8 7 6 6 10 14 15 15 14 14 14 16 18 18 17 18 18 17 17 17 16 15 14 13 12 11 10 9 9 9 8
1 1 3 2 1 2 1 1 1 1 1 2 3 4 4 3 4 4 3 1 1 2 1 1 3 3 0 1 1 1 1 1 1 1 1 2 0 2 2 1 1 1 1 1 3 4 6 7 6 6 7 9 8 7 7 8 7 8 7 7 9 13 16 16 16 15 16 17 19 19 19 19 20 19 18 17 17 16 15 14 12 11 11 11 10 9 8
2 1 3 2 1 2 1 1 1 1 2 3 4 4 4 3 3 3 2 2 3 3 3 2 2 2 1 0 0 1 1 2 1 1 0 1 1 2 1 1 1 2 2 3 6 7 7 6 6 6 7 8 6 6 7 7 7 9 10 8 8 11 15 17 16 16 17 18 19 19 19 20 21 19 18 17 17 17 16 15 13 12 12 12 11 10 9
1 1 1 1 1 1 1 1 1 2 1 2 2 2 2 2 2 4 4 4 4 3 3 2 2 0 0 1 1 0 1 1 0 1 0 1 0 1 2 1 3 3 3 5 7 6 6 6 6 6 6 6 6 6 7 7 9 11 11 9 9 12 15 17 17 19 19 19 19 19 20 20 21 20 18 18 18 18 17 16 15 14 13 13 12 11 11
4 2 1 1 2 2 2 2 1 3 3 2 1 2 2 3 4 5 5 4 3 3 3 2 2 2 1 1 1 1 0 1 1 0 1 1 1 1 1 1 4 5 5 6 6 6 6 6 6 5 5 6 6 7 7 8 9 11 12 14 14 16 18 19 20 21 21 20 20 21 21 20 20 20 20 19 18 19 18 17 15 15 15 14 13 13 12
4 2 1 1 0 2 1 1 1 4 5 3 2 3 4 3 4 5 6 6 3 2 2 1 1 1 1 1 2 1 2 2 1 2 0 2 3 2 1 3 5 6 6 6 6 6 7 6 4 5 6 7 7 7 8 8 8 11 15 19 20 20 21 22 22 21 22 22 22 22 21 21 22 23 22 21 19 18 17 17 17 16 16 15 14 13 13
2 1 1 1 0 2 2 3 2 4 5 3 4 4 4 3 3 6 10 8 4 4 2 1 0 2 2 1 1 1 1 1 2 1 3 4 3 3 3 6 8 7 7 6 6 6 6 5 4 5 7 7 7 8 9 11 13 16 18 20 20 20 21 22 22 22 22 22 23 23 23 24 25 24 22 19 17 15 15 18 19 18 17 17 16 15 14
1 0 0 1 1 2 4 2 2 4 4 4 3 3 3 2 3 7 11 9 5 3 3 2 2 3 1 2 2 1 1 0 1 2 4 4 4 5 6 8 8 7 7 7 6 6 5 5 6 7 8 8 8 10 12 15 17 19 21 21 21 22 22 22 23 24 23 21 23 25 25 24 23 21 19 17 17 16 17 20 21 20 19 18 17 16 14
Wind_Direction
203 200 189 182 177 185 213 277 311 325 334 324 319 72 76 84 156 334 351 337 129 65 59 340 20 67 130 1 74 34 70 107 107 308 12 355 189 21 17 190 128 176 204 170 179 200 206 203 144 231 247 255 35 354 351 320 315 36 15 326 320 53 64 323 286 263 257 268 4 58 31 44 27 353 55 68 20 18 217 249 299 306 287 313 300 289 303
187 178 173 178 184 211 255 289 309 334 349 345 27 114 114 123 181 357 6 352 184 88 98 149 54 60 309 53 38 351 76 112 57 53 290 287 155 104 287 187 92 168 146 123 201 241 138 220 324 68 188 238 63 59 343 327 2 47 40 335 339 334 3 358 340 333 322 329 359 338 315 5 349 303 7 33 3 343 286 256 0 294 267 318 313 294 303
169 169 174 188 210 250 272 282 297 340 3 22 87 123 136 84 150 312 12 34 73 104 153 145 130 152 99 75 38 0 54 67 23 157 195 232 175 147 8 146 113 114 115 71 330 335 17 298 341 30 247 264 22 64 0 331 40 61 351 316 316 303 316 83 54 348 327 320 320 314 317 334 325 300 344 11 3 354 346 336 352 314 291 307 297 288 302
167 173 187 213 251 280 278 274 277 340 14 77 99 92 123 97 68 321 352 26 55 71 107 100 110 147 128 88 15 44 80 321 323 131 158 204 169 115 1 156 88 53 43 20 350 333 358 35 40 21 298 277 310 53 14 9 52 18 340 1 81 68 310 188 168 201 260 272 278 294 312 316 308 314 339 3 2 4 29 21 334 310 307 306 298 303 310
175 189 215 248 280 302 291 271 250 277 13 119 99 56 49 101 98 77 349 9 39 40 21 47 86 142 135 108 177 152 103 312 337 108 225 136 119 50 35 57 48 29 26 29 317 298 350 34 67 63 268 274 294 313 129 71 9 330 319 355 85 77 301 255 196 217 245 260 274 291 304 297 296 317 346 357 348 5 31 353 296 310 318 308 313 318 315
196 219 245 262 276 291 283 84 276 265 288 197 119 45 26 69 141 175 107 75 76 52 35 70 83 78 87 102 121 105 88 188 188 199 307 33 51 163 58 24 26 183 172 109 221 313 354 5 308 124 303 307 337 355 101 101 337 330 0 350 90 110 259 255 216 256 264 267 274 282 285 279 298 354 358 343 339 349 350 298 279 300 306 299 311 318 316
223 241 256 264 260 239 231 286 291 243 182 169 104 79 37 81 114 35 20 92 142 124 58 94 87 65 67 93 109 144 147 180 216 206 52 12 327 162 131 342 0 176 184 124 84 319 2 337 295 208 43 331 356 359 336 326 335 76 40 355 106 136 257 249 251 285 283 279 276 278 279 279 340 43 350 329 328 309 292 278 280 297 297 297 308 313 314
244 256 258 263 257 235 239 269 223 158 142 139 88 88 106 146 148 142 64 74 92 49 41 79 84 51 43 84 107 152 157 182 230 193 127 144 281 99 80 319 43 150 157 116 92 237 172 200 254 188 119 316 259 191 235 257 337 25 57 335 344 18 307 292 63 310 293 280 269 281 292 280 162 84 346 331 325 314 306 309 316 316 307 307 316 315 310
250 255 250 256 243 213 210 184 170 174 173 166 88 88 107 109 131 139 112 74 0 16 38 65 97 67 14 114 159 188 187 190 182 171 188 184 202 188 140 146 109 78 86 114 254 237 177 190 222 188 169 235 211 203 202 180 342 359 36 340 356 28 330 345 47 345 292 290 323 316 311 302 133 63 349 346 337 340 341 328 320 315 313 321 332 324 316
237 237 227 226 200 188 196 197 202 220 202 176 104 122 132 101 92 114 105 81 348 34 49 35 95 123 314 133 154 208 219 210 125 126 217 190 185 191 153 138 107 59 49 244 242 223 190 204 222 187 163 157 151 183 172 144 169 301 99 29 12 90 350 327 24 328 294 322 341 314 310 11 92 286 333 355 350 341 328 317 317 318 329 337 332 321 328
200 201 184 184 187 192 201 213 228 212 203 217 151 156 162 144 123 89 79 80 355 28 90 42 78 138 214 135 117 114 115 84 17 162 212 287 71 111 125 114 85 56 200 186 134 129 144 147 124 107 99 87 91 104 125 132 161 178 147 111 45 94 38 309 177 306 302 320 331 316 324 8 325 203 83 6 343 328 316 318 328 353 57 353 329 331 332
151 159 165 170 172 182 190 201 219 210 206 213 166 158 166 157 129 95 86 108 197 16 86 118 200 171 188 133 104 128 167 176 209 195 241 263 114 64 95 107 90 257 181 118 91 94 99 89 72 70 60 48 59 77 85 106 330 16 130 138 112 72 8 308 177 189 278 317 351 350 350 4 198 169 78 8 322 315 323 327 338 17 19 348 340 335 329
117 122 134 146 146 150 156 148 162 183 180 178 169 162 167 157 119 89 97 112 150 236 109 115 286 89 118 121 102 105 203 187 10 267 299 18 157 301 2 131 139 172 155 124 104 107 116 37 18 46 17 14 34 53 57 5 323 350 52 102 132 116 21 314 208 221 291 348 23 343 305 323 134 154 5 352 336 340 336 331 343 69 6 349 339 327 327
98 102 106 113 120 126 128 120 120 128 149 164 174 172 171 166 125 98 117 106 124 244 134 110 232 120 117 132 114 94 298 340 8 235 178 88 177 229 259 201 168 162 155 135 94 82 137 39 28 6 333 6 22 359 342 9 4 24 17 5 97 121 104 12 332 355 355 333 317 250 273 317 46 6 330 334 335 337 326 318 324 84 5 349 337 326 332
91 90 91 94 97 101 105 109 115 131 151 169 193 184 172 174 163 134 131 112 117 228 213 164 190 168 139 153 139 113 47 352 18 263 324 7 202 227 249 190 177 163 147 124 80 57 68 64 52 16 346 6 359 304 305 345 358 62 57 46 74 71 87 104 334 342 81 346 320 314 316 319 283 307 319 322 314 315 307 289 287 12 1 349 340 333 334
85 83 84 88 87 89 94 94 97 114 122 129 177 177 162 161 145 118 104 97 114 157 234 206 175 141 121 138 189 144 139 156 145 331 336 336 305 294 153 165 172 151 109 80 67 74 59 63 124 104 319 226 218 289 315 335 315 335 31 52 57 33 35 108 79 343 42 26 323 315 312 292 197 288 316 331 318 317 322 302 283 357 359 348 341 335 333
74 72 73 77 77 80 83 77 76 83 88 102 172 186 159 141 140 121 99 85 95 123 237 199 150 125 109 113 224 194 149 144 124 112 286 288 292 309 319 119 99 101 97 67 32 61 68 63 103 85 288 224 162 290 304 342 310 305 332 1 29 22 7 45 37 309 267 268 261 249 255 249 294 332 332 332 308 307 336 331 322 349 353 344 339 333 329
64 62 61 62 63 66 67 66 71 71 74 112 159 171 137 128 138 129 107 94 91 105 259 14 91 129 121 141 180 180 138 126 106 104 92 302 282 300 328 43 64 31 92 93 51 69 85 62 70 98 246 258 89 281 277 320 286 279 307 339 356 356 339 12 358 263 244 224 237 270 258 241 310 324 317 317 312 316 12 329 315 336 341 335 333 329 328
63 61 58 56 56 56 56 56 53 52 77 124 156 148 114 116 128 120 101 86 84 115 194 264 340 153 124 116 123 103 99 113 114 112 82 338 248 164 34 36 99 350 41 89 89 100 99 75 240 128 163 285 319 121 254 272 231 240 341 350 334 333 315 320 306 265 256 218 229 290 275 217 281 309 303 351 349 339 329 311 314 329 330 327 329 327 330
64 61 59 57 56 54 53 55 49 44 79 128 206 153 107 110 138 121 104 109 102 95 125 229 156 140 103 59 114 122 122 88 105 130 140 189 208 106 59 323 290 344 15 65 77 141 127 163 229 167 170 244 259 152 259 289 259 226 221 229 216 200 274 307 288 244 296 319 318 327 295 256 356 349 353 33 17 322 301 316 323 324 323 325 327 327 336
62 60 58 55 55 54 53 55 51 44 63 76 146 126 94 84 83 99 133 132 119 104 174 150 112 106 91 74 94 107 105 108 119 150 149 160 178 103 138 218 205 143 191 142 124 198 168 156 192 221 187 206 267 185 209 307 310 283 178 165 225 207 168 266 276 239 26 343 233 238 276 288 21 14 359 24 309 290 316 322 317 320 324 327 328 329 338
61 59 57 53 53 53 51 53 50 43 50 60 132 130 101 93 94 106 120 109 92 86 118 116 96 86 78 66 64 66 67 87 91 131 132 121 350 85 142 158 146 167 188 127 111 173 171 144 163 176 177 182 202 218 171 129 302 296 280 132 225 221 187 193 233 218 208 238 242 261 287 305 30 49 84 159 281 322 341 317 305 313 323 329 334 332 333
61 58 57 53 53 52 50 52 51 45 48 53 139 138 119 109 105 113 116 100 85 84 102 101 89 76 58 46 44 36 30 53 84 79 105 101 95 140 134 140 152 177 167 103 137 172 163 148 141 140 175 196 152 121 63 231 246 256 223 212 250 232 178 144 184 250 263 259 257 272 294 316 345 5 85 80 349 333 333 316 307 312 324 335 342 333 329
60 57 55 52 52 53 53 55 56 56 63 75 112 126 120 117 116 115 109 99 91 95 87 65 65 61 20 17 31 13 9 44 104 162 121 124 145 225 267 212 166 103 334 217 168 123 120 132 120 114 231 221 148 134 208 247 243 211 177 287 296 266 166 147 199 267 311 283 261 270 293 296 306 315 153 7 341 317 303 312 312 319 334 339 341 338 329
57 55 53 52 52 53 54 56 59 64 75 91 111 121 120 119 121 118 105 98 112 122 98 36 0 4 350 3 25 7 5 38 83 111 58 152 172 167 177 174 141 117 165 183 140 85 80 105 125 136 215 220 178 181 212 233 238 197 190 260 279 214 153 196 214 209 231 262 272 294 299 273 273 258 123 327 315 292 293 309 314 333 343 336 334 335 328
54 53 54 55 56 58 60 62 66 72 83 96 103 111 116 115 112 111 109 109 106 94 95 106 311 337 86 58 35 23 22 41 72 96 86 98 108 116 129 122 101 101 109 97 84 94 101 103 112 141 181 187 169 184 201 221 213 191 229 241 211 135 151 191 213 237 254 264 281 316 313 280 261 171 172 274 279 278 293 302 311 339 347 333 326 325 321
50 50 55 59 62 67 70 72 75 77 82 93 96 103 113 113 114 116 107 97 82 51 96 144 273 314 106 83 41 35 44 54 69 79 84 97 96 106 134 125 102 87 76 59 49 85 91 83 136 186 189 192 153 168 204 249 150 187 253 252 178 152 197 199 11 293 275 272 272 325 313 292 267 240 280 304 299 299 309 319 335 351 347 330 319 316 318
49 48 51 58 72 82 84 86 88 85 81 79 80 86 89 92 116 144 94 34 71 120 124 144 161 126 115 73 22 27 51 59 57 58 63 72 80 101 134 125 102 78 73 79 97 95 93 139 202 180 168 189 204 221 269 317 176 247 252 228 186 189 195 176 172 241 266 278 223 169 227 271 270 287 315 26 27 324 322 339 353 347 335 331 327 322 325
51 49 46 45 69 109 109 104 101 89 76 70 69 75 73 66 69 85 72 75 108 113 105 95 98 91 89 15 6 8 44 55 41 45 61 69 76 88 96 94 99 110 97 96 115 118 136 189 192 167 172 163 171 257 285 201 213 251 240 205 193 196 186 179 192 224 262 277 197 167 201 246 266 291 284 151 58 2 349 357 353 335 324 331 338 334 330
50 49 47 42 39 6 266 241 235 255 305 25 44 57 60 55 62 78 88 101 112 110 103 104 103 54 297 335 7 1 30 64 52 52 61 65 68 72 74 80 92 97 82 78 105 135 171 244 334 271 264 160 134 200 249 160 220 264 251 209 200 204 200 200 202 212 237 228 165 170 216 244 267 276 234 128 53 24 21 357 336 321 319 336 344 336 329
46 46 46 46 48 48 41 16 260 254 259 263 304 41 69 71 61 76 88 99 104 102 99 98 92 357 334 342 358 22 41 55 62 58 52 53 59 58 59 71 78 66 80 90 90 123 171 187 81 105 277 79 109 156 174 152 244 276 256 210 202 204 206 211 209 213 228 217 146 208 247 238 244 259 194 104 53 30 23 340 323 323 332 343 344 334 328
45 45 46 48 50 54 58 58 59 74 110 95 88 93 112 126 105 83 93 106 105 105 102 92 79 15 331 313 315 19 42 39 34 45 30 26 42 40 36 47 46 65 99 110 116 178 187 175 138 137 162 105 97 106 142 169 228 254 231 200 201 206 204 209 208 205 203 174 125 328 286 247 188 191 197 77 63 66 13 330 323 331 340 340 338 334 330
48 50 54 56 55 59 68 73 76 83 88 85 81 79 81 93 103 98 103 104 91 87 92 96 100 112 261 271 310 354 19 27 1 24 35 16 4 352 355 8 12 34 64 92 184 210 178 125 130 153 268 91 98 99 204 222 231 238 222 202 204 201 198 204 200 186 187 179 167 206 265 260 234 215 218 186 123 123 350 338 334 338 341 338 331 329 330
49 63 67 72 70 69 73 76 80 85 85 79 73 68 67 70 73 79 115 133 92 68 66 87 112 135 331 356 345 335 32 143 328 353 343 343 358 22 314 343 0 43 48 356 131 150 324 77 141 186 262 16 94 142 253 249 244 238 231 227 217 187 172 210 211 200 198 192 192 212 240 257 254 226 219 210 170 281 334 343 342 337 335 327 315 319 326
38 82 80 81 81 77 75 71 71 76 77 75 72 70 68 65 62 60 68 104 81 52 34 48 87 126 99 8 320 300 357 65 53 212 202 314 355 55 139 329 344 341 219 337 56 95 263 194 158 195 240 138 179 227 239 246 246 235 222 223 210 163 152 219 226 211 194 180 188 222 241 240 234 246 256 246 218 289 326 332 331 319 311 304 308 318 322
22 116 114 98 83 76 63 48 43 50 68 78 81 70 61 59 58 58 60 60 59 76 136 81 61 112 143 172 269 288 358 17 290 325 7 332 345 23 78 87 281 249 57 50 57 252 263 150 143 231 270 204 216 228 225 222 227 224 215 215 205 182 186 206 192 172 171 169 183 238 244 221 226 249 254 231 213 243 305 303 291 291 294 295 305 314 315
15 166 189 186 45 31 21 23 33 66 95 100 85 51 36 36 50 49 48 47 45 50 78 103 90 160 165 185 267 332 345 296 284 354 355 253 255 336 52 85 224 261 4 16 247 216 246 58 114 198 233 224 229 241 232 210 212 217 212 206 199 191 196 195 150 139 156 227 262 251 237 229 237 242 236 228 222 220 263 269 261 261 274 283 292 301 306
49 111 179 225 27 32 14 2 37 102 107 74 12 17 16 21 42 38 15 17 22 27 50 82 102 305 61 79 321 354 357 311 350 14 333 221 249 339 35 99 183 242 324 296 250 189 95 12 89 222 251 260 265 261 245 223 217 219 203 187 187 185 183 171 149 143 164 240 253 225 210 226 244 241 230 231 230 219 237 255 253 247 257 273 284 294 301
75 92 62 56 67 87 253 17 77 111 91 345 355 16 2 12 39 32 337 355 14 5 24 61 125 179 85 53 324 345 40 48 18 2 312 212 290 314 325 137 220 17 347 287 265 94 356 299 322 308 278 274 271 258 238 214 210 218 203 184 183 181 175 174 175 178 191 217 225 204 197 217 236 234 221 229 236 227 234 243 246 248 258 271 284 293 297
85 77 49 47 66 81 94 92 80 65 347 351 10 38 25 22 47 78 338 28 38 343 7 70 130 208 102 82 298 314 24 43 20 242 205 203 221 140 77 84 225 49 313 268 267 59 45 276 307 315 270 251 248 247 222 195 203 211 194 181 183 182 180 183 191 197 203 213 214 203 200 207 216 217 218 223 224 225 232 234 237 248 259 268 281 290 292
82 69 68 93 100 88 80 71 45 28 32 26 20 30 37 9 358 13 52 49 20 288 304 72 54 320 352 86 179 253 335 24 73 133 123 347 295 114 89 295 307 59 255 255 260 67 71 295 277 264 247 241 243 243 213 200 208 205 188 184 185 183 183 187 193 199 200 198 195 198 201 206 211 217 222 222 219 223 230 231 236 247 255 264 278 287 290
102 102 102 105 100 84 62 44 29 23 43 63 18 0 356 348 358 15 40 51 3 289 327 44 81 238 236 125 170 224 303 9 42 86 78 332 294 128 117 330 0 43 240 249 33 61 52 279 266 258 252 248 246 232 208 205 209 203 193 189 185 183 185 186 188 197 201 198 194 196 198 203 210 217 222 223 223 228 232 232 235 243 250 262 278 286 288
104 105 108 103 72 39 26 25 27 32 59 61 29 355 333 351 18 24 329 313 319 88 324 309 272 190 314 37 113 155 8 15 32 78 82 314 303 71 60 29 355 226 246 332 58 71 223 235 237 246 255 258 244 227 219 215 211 201 193 193 191 190 191 190 190 196 201 202 203 202 200 203 210 219 223 222 221 225 231 235 239 242 248 261 277 284 287
103 67 66 72 35 23 20 358 6 42 49 25 31 43 342 344 344 321 323 330 314 259 282 351 97 63 307 331 63 61 342 25 62 74 23 332 14 63 69 241 237 240 344 28 89 218 241 243 242 247 260 273 254 231 221 215 207 194 192 195 194 191 191 192 193 194 195 199 202 201 200 203 208 212 216 219 220 223 227 231 234 237 242 254 269 277 282
311 349 30 36 2 356 20 354 354 31 47 355 179 166 173 305 280 236 236 295 281 291 339 52 87 90 289 296 18 32 330 22 37 318 291 11 21 5 220 238 264 20 37 309 277 278 265 256 252 249 250 252 245 225 209 207 203 189 177 184 192 193 192 192 192 192 193 195 196 195 195 198 202 205 211 217 222 226 228 229 231 233 238 250 265 272 275
85 61 73 71 348 334 57 54 345 1 167 205 199 179 176 201 220 220 224 189 138 163 202 144 100 92 50 291 326 7 45 49 16 253 127 80 334 255 238 237 1 34 41 276 267 256 246 248 251 243 235 238 237 217 203 202 195 183 180 189 196 197 197 198 199 200 201 199 196 195 196 199 202 206 212 217 220 225 229 231 233 236 240 250 262 269 271
99 66 81 97 13 348 38 175 231 235 197 197 200 193 186 199 225 233 220 189 168 163 164 143 104 101 172 208 38 345 23 60 38 262 194 116 235 282 6 31 255 221 202 232 244 243 244 250 253 242 234 232 225 209 202 197 191 194 202 206 199 196 199 201 204 205 204 200 197 197 200 203 205 207 209 212 216 223 227 230 233 238 242 250 262 269 270
117 67 70 114 189 247 213 194 248 286 249 192 198 212 192 187 223 229 208 188 166 141 132 131 127 144 326 45 81 265 303 25 275 257 212 108 216 309 0 340 269 241 208 214 230 238 241 240 237 236 233 223 206 200 202 199 198 203 208 208 202 199 199 202 206 207 205 201 200 202 204 205 205 207 208 209 214 220 224 227 232 236 240 246 255 262 264
87 95 85 93 144 195 196 145 40 306 282 232 207 221 187 190 229 229 197 169 153 151 157 150 137 147 265 344 53 74 275 235 202 294 13 26 240 236 197 245 265 262 238 223 228 240 247 243 237 239 237 220 206 207 209 206 203 205 207 209 210 204 200 202 207 208 205 203 204 207 207 205 203 204 206 208 213 218 222 224 228 231 235 241 248 252 255
62 81 100 79 63 260 248 109 50 306 301 293 258 223 190 195 240 223 183 164 144 111 105 80 76 114 118 16 36 20 271 240 162 106 233 231 209 180 187 228 236 234 229 225 227 236 244 239 223 227 234 224 214 215 217 209 206 210 211 212 210 206 204 205 207 205 204 207 209 208 204 203 203 206 209 213 216 217 217 220 225 229 232 237 242 246 249
32 60 99 92 202 211 180 154 203 269 275 262 240 213 184 189 232 203 177 162 122 83 105 166 104 72 54 15 348 237 251 221 125 146 240 232 188 154 193 230 233 230 236 243 243 243 246 238 218 223 233 228 219 221 220 212 209 212 213 211 209 207 206 206 205 204 205 208 209 206 205 206 209 212 215 216 214 209 209 217 223 226 229 233 238 241 245
55 151 230 1 52 154 154 159 228 247 241 235 225 196 184 215 216 174 161 151 127 122 172 174 93 84 125 241 225 160 85 344 257 248 251 238 201 184 205 227 235 236 244 255 262 260 251 236 224 227 232 230 226 223 219 216 216 215 212 208 206 206 205 205 204 204 203 203 205 206 207 207 208 208 207 203 198 199 208 219 223 222 224 230 235 238 241